TimeCST,TemperatureF,Dew PointF,Humidity,Sea Level PressureIn,VisibilityMPH,Wind Direction,Wind SpeedMPH,Gust SpeedMPH,PrecipitationIn,Events,Conditions,WindDirDegrees,DateUTC
12:53 AM,39.0,33.1,79,29.46,10.0,South,11.5,-,N/A,,Clear,180,2013-11-16 06:53:00
1:53 AM,37.9,33.1,83,29.45,10.0,South,9.2,-,N/A,,Clear,190,2013-11-16 07:53:00
2:53 AM,37.0,33.1,86,29.43,10.0,South,11.5,-,N/A,,Clear,180,2013-11-16 08:53:00
3:53 AM,34.0,32.0,92,29.42,10.0,South,8.1,-,N/A,,Clear,180,2013-11-16 09:53:00
4:53 AM,33.1,32.0,96,29.40,9.0,SSE,3.5,-,N/A,,Clear,150,2013-11-16 10:53:00
5:53 AM,34.0,33.1,96,29.37,7.0,SE,6.9,-,N/A,,Clear,140,2013-11-16 11:53:00
6:53 AM,35.1,34.0,96,29.36,7.0,SSE,11.5,-,N/A,,Clear,160,2013-11-16 12:53:00
7:09 AM,35.6,33.8,93,29.33,5.0,SSE,9.2,-,N/A,,Scattered Clouds,160,2013-11-16 13:09:00
7:18 AM,35.6,33.8,93,29.34,5.0,SSE,12.7,-,N/A,,Mostly Cloudy,160,2013-11-16 13:18:00
7:28 AM,35.6,35.6,100,29.34,2.5,South,12.7,-,N/A,,Overcast,170,2013-11-16 13:28:00
7:32 AM,35.6,35.6,100,29.35,1.2,South,12.7,-,N/A,,Overcast,180,2013-11-16 13:32:00
7:41 AM,35.6,35.6,100,29.35,0.5,South,12.7,-,N/A,Fog,Fog,170,2013-11-16 13:41:00
7:51 AM,35.6,35.6,100,29.34,0.2,South,11.5,-,N/A,Fog,Fog,170,2013-11-16 13:51:00
7:53 AM,36.0,36.0,100,29.38,0.2,South,12.7,-,N/A,Fog,Fog,180,2013-11-16 13:53:00
8:53 AM,37.9,37.9,100,29.37,0.2,SSE,10.4,-,N/A,Fog,Fog,160,2013-11-16 14:53:00
9:53 AM,39.9,39.9,100,29.31,0.2,SSE,10.4,-,N/A,Fog,Fog,150,2013-11-16 15:53:00
10:18 AM,41.0,41.0,100,29.27,0.5,SSE,11.5,-,N/A,Fog,Fog,150,2013-11-16 16:18:00
10:53 AM,42.1,42.1,100,29.26,1.0,ESE,11.5,-,N/A,,Overcast,120,2013-11-16 16:53:00
11:03 AM,42.8,42.8,100,29.22,2.0,ESE,10.4,-,N/A,,Overcast,120,2013-11-16 17:03:00
11:22 AM,42.8,42.8,100,29.24,3.0,SSE,18.4,26.5,N/A,,Overcast,160,2013-11-16 17:22:00
11:35 AM,42.8,42.8,100,29.24,2.5,South,15.0,23.0,N/A,,Overcast,170,2013-11-16 17:35:00
11:53 AM,43.0,43.0,100,29.26,2.5,South,6.9,-,N/A,,Overcast,180,2013-11-16 17:53:00
12:14 PM,42.8,42.8,100,29.22,1.2,SSE,8.1,-,N/A,,Overcast,160,2013-11-16 18:14:00
12:49 PM,42.8,42.8,100,29.24,0.5,SSW,6.9,-,N/A,Fog,Fog,200,2013-11-16 18:49:00
12:53 PM,43.0,43.0,100,29.26,0.5,SSW,5.8,-,N/A,Fog,Fog,200,2013-11-16 18:53:00
1:13 PM,42.8,42.8,100,29.23,1.5,SSW,10.4,-,N/A,,Overcast,210,2013-11-16 19:13:00
1:44 PM,42.8,42.8,100,29.22,1.2,South,4.6,-,N/A,,Overcast,180,2013-11-16 19:44:00
1:53 PM,43.0,43.0,100,29.24,1.0,SSW,4.6,-,N/A,,Overcast,200,2013-11-16 19:53:00
2:04 PM,42.8,42.8,100,29.21,0.8,South,4.6,-,N/A,,Overcast,180,2013-11-16 20:04:00
2:32 PM,44.6,44.6,100,29.19,1.0,SE,4.6,-,N/A,,Overcast,140,2013-11-16 20:32:00
2:53 PM,44.1,43.0,96,29.22,1.5,South,4.6,-,N/A,,Overcast,170,2013-11-16 20:53:00
3:06 PM,44.6,42.8,93,29.20,2.0,South,5.8,-,N/A,,Overcast,180,2013-11-16 21:06:00
3:25 PM,44.6,42.8,93,29.20,3.0,SSW,5.8,-,N/A,,Overcast,200,2013-11-16 21:25:00
3:53 PM,44.1,43.0,96,29.25,3.0,SW,4.6,-,N/A,,Overcast,230,2013-11-16 21:53:00
4:04 PM,44.6,42.8,93,29.22,4.0,SW,6.9,-,N/A,,Overcast,220,2013-11-16 22:04:00
4:37 PM,44.6,42.8,93,29.21,4.0,SW,4.6,-,N/A,,Overcast,220,2013-11-16 22:37:00
4:53 PM,44.1,42.1,93,29.25,4.0,SW,5.8,-,N/A,,Overcast,230,2013-11-16 22:53:00
5:53 PM,43.0,39.9,89,29.26,9.0,WSW,8.1,-,N/A,,Overcast,250,2013-11-16 23:53:00
6:53 PM,42.1,39.9,92,29.28,6.0,West,6.9,-,N/A,,Overcast,260,2013-11-17 00:53:00
7:53 PM,41.0,39.9,96,29.29,4.0,WNW,5.8,-,N/A,,Overcast,290,2013-11-17 01:53:00
8:37 PM,39.2,39.2,100,29.26,4.0,WSW,5.8,-,N/A,,Overcast,250,2013-11-17 02:37:00
8:46 PM,39.2,39.2,100,29.27,4.0,West,6.9,-,N/A,,Overcast,260,2013-11-17 02:46:00
8:53 PM,39.9,39.0,97,29.31,4.0,West,6.9,-,N/A,,Overcast,260,2013-11-17 02:53:00
9:06 PM,39.2,39.2,100,29.28,4.0,West,5.8,-,N/A,,Overcast,280,2013-11-17 03:06:00
9:18 PM,39.2,39.2,100,29.29,4.0,West,9.2,-,N/A,,Overcast,260,2013-11-17 03:18:00
9:42 PM,39.2,39.2,100,29.29,4.0,West,8.1,-,N/A,,Overcast,270,2013-11-17 03:42:00
9:53 PM,39.9,39.0,97,29.33,4.0,West,8.1,-,N/A,,Overcast,280,2013-11-17 03:53:00
10:04 PM,39.2,39.2,100,29.30,4.0,WNW,8.1,-,N/A,,Overcast,290,2013-11-17 04:04:00
10:53 PM,39.9,39.0,97,29.34,6.0,WNW,9.2,-,N/A,,Overcast,300,2013-11-17 04:53:00
11:05 PM,39.2,39.2,100,29.32,7.0,WNW,11.5,-,N/A,,Overcast,290,2013-11-17 05:05:00
11:31 PM,39.2,37.4,93,29.32,4.0,NW,8.1,-,N/A,,Overcast,310,2013-11-17 05:31:00
11:53 PM,37.9,37.0,97,29.37,3.0,NW,8.1,-,N/A,,Overcast,310,2013-11-17 05:53:00